Location: Rancho Del Sol Observatory
(38.7214°N, 120.6350°W)
Time: 16:26:08
(UTC-08:00)

A-11 Canister half - Pass Details

Date: 31 January 2020
Orbit: 1517 x 1683 km, 47.2° (Epoch: 24 February)

Event Time Altitude Azimuth Distance (km) Brightness Sun altitude
Rises 21:54:04 0° 240° (WSW) 4,799 11.9 -52.4°
Reaches altitude 10° 21:57:12 10° 240° (WSW) 3,793 11.2 -52.9°
Enters shadow 21:58:47 16° 241° (WSW) 3,296 10.9 -53.2°
